GW2704 Weather Reports


time (UTC)temp
C
wind
direction
speed
KPH
gust
KPH
rain 1hr
cm
rain 24hr
cm
rain mn
cm
humidity
%
barometer
mb
20260505022553 20 62 1.6 4.8 0.00 0.00 0.00 56 1011.3
20260505021559 21 181 0.0 3.2 0.00 0.00 0.00 55 1011.3
20260505020533 21 112 1.6 3.2 0.00 0.00 0.00 52 1011.3
20260505015529 22 136 1.6 3.2 0.00 0.00 0.00 49 1011.3
20260505014533 23 169 1.6 4.8 0.00 0.00 0.00 47 1011.2
20260505013553 23 134 1.6 3.2 0.00 0.00 0.00 45 1011.3
20260505012533 25 22 3.2 8.0 0.00 0.00 0.00 45 1011.2
20260505011528 25 157 0.0 1.6 0.00 0.00 0.00 45 1011.2
20260505010533 26 26 1.6 3.2 0.00 0.00 0.00 40 1011.2
20260505005534 27 84 1.6 4.8 0.00 0.00 0.00 36 1011.2
20260505004520 26 34 1.6 3.2 0.00 0.00 0.00 40 1011.1
20260505003533 27 78 0.0 1.6 0.00 0.00 0.00 39 1011.2
20260505002533 28 182 1.6 3.2 0.00 0.00 0.00 39 1011.1
20260505001533 28 45 1.6 4.8 0.00 0.00 0.00 38 1011.1
20260505000628 27 159 0.0 1.6 0.00 0.00 0.00 37 1011.1
20260504235530 28 208 1.6 3.2 0.00 0.00 0.00 35 1011.1
20260504234552 28 186 1.6 3.2 0.00 0.00 0.00 37 1011.2
20260504233533 27 86 1.6 4.8 0.00 0.00 0.00 35 1011.3
20260504232520 27 75 1.6 3.2 0.00 0.00 0.00 35 1011.3
20260504231605 28 169 1.6 3.2 0.00 0.00 0.00 38 1011.3
20260504230553 27 208 3.2 4.8 0.00 0.00 0.00 35 1011.3
20260504225528 27 180 1.6 4.8 0.00 0.00 0.00 37 1011.4
20260504224552 27 77 1.6 8.0 0.00 0.00 0.00 37 1011.4
20260504223533 27 171 1.6 4.8 0.00 0.00 0.00 36 1011.4
20260504222533 27 180 1.6 4.8 0.00 0.00 0.00 42 1011.6
20260504221600 26 98 0.0 3.2 0.00 0.00 0.00 39 1011.5
20260504220520 26 14 0.0 3.2 0.00 0.00 0.00 37 1011.8
20260504215544 26 50 3.2 4.8 0.00 0.00 0.00 36 1012.1
20260504214628 26 360 3.2 8.0 0.00 0.00 0.00 37 1012.0
20260504213548 26 6 3.2 8.0 0.00 0.00 0.00 37 1012.1
20260504212552 26 51 1.6 3.2 0.00 0.00 0.00 37 1012.1
20260504211616 26 70 1.6 3.2 0.00 0.00 0.00 39 1012.1
20260504210535 26 128 0.0 1.6 0.00 0.00 0.00 40 1012.2
20260504205600 26 359 3.2 9.7 0.00 0.00 0.00 41 1012.3
20260504204520 26 39 3.2 8.0 0.00 0.00 0.00 41 1012.2
20260504203544 26 44 1.6 8.0 0.00 0.00 0.00 41 1012.3
20260504202608 26 71 1.6 3.2 0.00 0.00 0.00 41 1012.3
20260504201548 26 49 1.6 3.2 0.00 0.00 0.00 42 1012.4
20260504200552 26 122 1.6 3.2 0.00 0.00 0.00 42 1012.4
20260504195656 25 128 1.6 4.8 0.00 0.00 0.00 43 1012.5
20260504194533 25 145 1.6 3.2 0.00 0.00 0.00 44 1012.4
20260504193600 25 83 1.6 3.2 0.00 0.00 0.00 44 1012.5
20260504192520 25 31 1.6 3.2 0.00 0.00 0.00 45 1012.6
20260504191545 24 96 3.2 4.8 0.00 0.00 0.00 47 1012.7
20260504190608 24 34 1.6 4.8 0.00 0.00 0.00 46 1012.9
20260504185528 24 27 1.6 8.0 0.00 0.00 0.00 47 1012.9
20260504184552 23 182 3.2 4.8 0.00 0.00 0.00 54 1012.8
20260504183616 23 174 1.6 3.2 0.00 0.00 0.00 52 1013.0
20260504182553 24 78 0.0 1.6 0.00 0.00 0.00 52 1013.0
20260504181600 23 58 1.6 3.2 0.00 0.00 0.00 53 1012.9
20260504180520 22 137 1.6 1.6 0.00 0.00 0.00 58 1012.8
20260504175544 22 148 1.6 3.2 0.00 0.00 0.00 57 1012.8
20260504174608 22 151 1.6 3.2 0.00 0.00 0.00 56 1012.9
20260504173528 22 131 0.0 1.6 0.00 0.00 0.00 54 1012.9
20260504172612 21 167 1.6 3.2 0.00 0.00 0.00 61 1012.9
20260504171616 21 143 1.6 1.6 0.00 0.00 0.00 60 1013.0
20260504170533 21 93 0.0 1.6 0.00 0.00 0.00 61 1013.0
20260504150552 13 114 0.0 1.6 0.00 0.00 0.00 85 1012.8
20260504140608 10 0.0 0.0 0.00 0.00 0.00 97 1012.4
20260504130520 8 0.0 0.0 0.00 0.00 0.00 96 1012.1
20260504110552 9 0.0 0.0 0.00 0.00 0.00 95 1012.0
20260504100552 10 0.0 0.0 0.00 0.00 0.00 94 1011.8
20260504081600 11 0.0 0.0 0.00 0.00 0.00 91 1011.7
20260504080521 11 0.0 0.0 0.00 0.00 0.00 91 1011.8
20260504050553 16 0.0 0.0 0.00 0.00 0.00 80 1011.7
20260504045616 16 0.0 0.0 0.00 0.00 0.00 76 1011.8
20260504044533 16 0.0 0.0 0.00 0.00 0.00 74 1011.6
20260504043617 16 0.0 0.0 0.00 0.00 0.00 72 1011.7
20260504042534 17 0.0 0.0 0.00 0.00 0.00 69 1011.6
20260504041600 17 0.0 0.0 0.00 0.00 0.00 67 1011.5
20260504040532 18 0.0 0.0 0.00 0.00 0.00 64 1011.5
20260504035533 18 0.0 0.0 0.00 0.00 0.00 61 1011.4
20260504034520 19 0.0 0.0 0.00 0.00 0.00 60 1011.2
20260504033545 20 0.0 0.0 0.00 0.00 0.00 56 1011.2
20260504032532 20 0.0 0.0 0.00 0.00 0.00 55 1011.2
20260504031600 21 154 0.0 1.6 0.00 0.00 0.00 53 1011.4
20260504030532 21 81 0.0 1.6 0.00 0.00 0.00 52 1011.3
20260504025528 21 77 0.0 1.6 0.00 0.00 0.00 53 1011.3
20260504024552 22 71 0.0 1.6 0.00 0.00 0.00 52 1011.3
20260504023532 22 70 0.0 1.6 0.00 0.00 0.00 48 1011.4